Tracking 35275 objects as of 9-Sep-2026
HD Live streaming from Space Station
objects crossing your sky now

THORAD AGENA D DEB


THORAD AGENA D DEB is no longer on orbit


NORAD ID: 4906
Int'l Code: 1969-082HG
Launch date: September 30, 1969
Source: United States (US)
Launch site: AIR FORCE WESTERN TEST RANGE (AFWTR)
Decay date: 1981-09-17

Note: This is SATELLITE DEBRIS
Your satellite tracking list
Your tracking list is empty




NASA's NSSDC Master Catalog

Two Line Element Set (TLE):
1 04906U 69082 HG 81258.57775583  .07004906 +00000-0 +40941-1 0  9990
2 04906 070.0063 316.9272 0020315 207.1233 173.7677 15.77824696619454
Source of the keplerian elements: AFSPC